Morris, IL

6:31 PM CDT on May 22, 2017 (GMT -0500)
Morris

Weather History for KC09 - September, 2013

Change the Weather History Date:

Friday, September 27, 2013

  Actual Average (KARR) Record (KARR)
Temperature  
Mean Temperature 65 °F -  
Max Temperature 84 °F 68 °F 83 °F (2013)
Min Temperature 46 °F 43 °F 37 °F (2001)
Growing Degree Days 15 (Base 50)    
Moisture  
Dew Point 47 °F    
Average Humidity 59    
Maximum Humidity 100    
Minimum Humidity 21    
Precipitation  
Precipitation 0.00 in - - ()
Sea Level Pressure  
Sea Level Pressure 30.10 in    
Wind  
Wind Speed 4 mph (SE)    
Max Wind Speed 14 mph    
Max Gust Speed 17 mph    
Visibility 9 miles    
Events      
Averages and records for this station are not official NWS values.
T = Trace of Precipitation, MM = Missing Value Source: NWS Daily Summary

Daily Weather History Graph

Daily Weather History Graph

Search for Another Location

Airport or City:

Trip Planner

Search our weather history database for the weather conditions in past years. The results will help you decide how hot, cold, wet, or windy it might be!

Date:

Astronomy

Sep. 27, 2013 Rise Set
Actual Time 6:46 AM CDT 6:41 PM CDT
Civil Twilight 6:18 AM CDT 7:09 PM CDT
Nautical Twilight 5:46 AM CDT 7:41 PM CDT
Astronomical Twilight 5:14 AM CDT 8:14 PM CDT
Moon No Moon Rise 2:23 PM CDT (9/27)
Length of Visible Light 12h 50m
Length of Day
11h 55m
Last Quarter, 45% of the Moon is Illuminated
Sep 27
Last Quarter
Oct 4
New
Oct 11
First Quarter
Oct 18
Full
Oct 26
Last Quarter

Hourly Weather History & Observations

Time (CDT) Temp. Dew Point Humidity Pressure Visibility Wind Dir Wind Speed Gust Speed Precip Events Conditions
12:15 AM 52.9 °F 50.0 °F 90% 30.08 in 10.0 mi Calm Calm - N/A   Clear
12:35 AM 53.8 °F 52.0 °F 94% 30.08 in 10.0 mi Calm Calm - N/A   Clear
12:55 AM 53.8 °F 51.6 °F 92% 30.08 in 7.0 mi Calm Calm - N/A   Clear
1:15 AM 53.4 °F 51.4 °F 93% 30.09 in 7.0 mi Calm Calm - N/A   Clear
1:35 AM 53.6 °F 52.2 °F 95% 30.09 in 7.0 mi Calm Calm - N/A   Clear
1:55 AM 54.0 °F 53.1 °F 97% 30.09 in 7.0 mi Calm Calm - N/A   Clear
2:15 AM 54.5 °F 52.7 °F 94% 30.09 in 7.0 mi Calm Calm - N/A   Clear
2:35 AM 53.2 °F 51.3 °F 93% 30.10 in 7.0 mi ENE 3.5 mph - N/A   Clear
2:55 AM 52.2 °F 51.6 °F 98% 30.10 in 5.0 mi Calm Calm - N/A   Clear
3:15 AM 51.4 °F 51.3 °F 99% 30.10 in 5.0 mi Calm Calm - N/A   Clear
3:35 AM 52.5 °F 52.5 °F 100% 30.11 in 5.0 mi Calm Calm - N/A   Clear
3:55 AM 51.4 °F 51.4 °F 100% 30.11 in 7.0 mi Calm Calm - N/A   Clear
4:15 AM 51.4 °F 50.4 °F 96% 30.11 in 7.0 mi Calm Calm - N/A   Clear
4:35 AM 51.8 °F 50.9 °F 97% 30.11 in 7.0 mi ENE 4.6 mph - N/A   Clear
4:55 AM 52.2 °F 51.1 °F 96% 30.12 in 7.0 mi ENE 5.8 mph - N/A   Clear
5:15 AM 52.0 °F 50.5 °F 95% 30.12 in 10.0 mi East 4.6 mph - N/A   Clear
5:35 AM 52.0 °F 49.3 °F 90% 30.11 in 10.0 mi East 6.9 mph - N/A   Clear
5:55 AM 51.8 °F 49.5 °F 92% 30.12 in 10.0 mi East 5.8 mph - N/A   Clear
6:15 AM 52.5 °F 48.9 °F 88% 30.13 in 10.0 mi Calm Calm - N/A   Clear
6:35 AM 48.2 °F 46.0 °F 92% 30.14 in 10.0 mi Calm Calm - N/A   Clear
6:55 AM 46.4 °F 46.0 °F 99% 30.14 in 7.0 mi Calm Calm - N/A   Clear
7:15 AM 49.3 °F 49.3 °F 100% 30.15 in 10.0 mi Calm Calm - N/A   Clear
7:35 AM 51.3 °F 49.6 °F 94% 30.15 in 10.0 mi Calm Calm - N/A   Clear
7:55 AM 54.1 °F 49.5 °F 84% 30.16 in 10.0 mi East 3.5 mph - N/A   Clear
8:15 AM 56.1 °F 50.7 °F 82% 30.16 in 10.0 mi East 4.6 mph - N/A   Clear
8:35 AM 58.6 °F 50.7 °F 75% 30.16 in 10.0 mi SE 4.6 mph - N/A   Clear
8:55 AM 60.6 °F 51.3 °F 71% 30.16 in 10.0 mi SE 4.6 mph - N/A   Clear
9:15 AM 62.6 °F 50.4 °F 64% 30.16 in 10.0 mi SSE 4.6 mph - N/A   Clear
9:35 AM 64.2 °F 50.5 °F 61% 30.16 in 10.0 mi South 3.5 mph - N/A   Clear
9:55 AM 66.4 °F 50.9 °F 57% 30.16 in 10.0 mi SSE 4.6 mph - N/A   Clear
10:15 AM 68.9 °F 50.5 °F 52% 30.16 in 10.0 mi South 3.5 mph - N/A   Clear
10:35 AM 71.2 °F 50.2 °F 47% 30.16 in 10.0 mi SE 3.5 mph - N/A   Clear
10:55 AM 73.4 °F 49.5 °F 43% 30.16 in 10.0 mi ESE 4.6 mph - N/A   Clear
11:15 AM 75.7 °F 49.8 °F 40% 30.15 in 10.0 mi South 5.8 mph - N/A   Clear
11:35 AM 77.2 °F 49.6 °F 38% 30.15 in 10.0 mi SE 5.8 mph - N/A   Clear
11:55 AM 77.5 °F 48.0 °F 35% 30.14 in 10.0 mi South 9.2 mph - N/A   Clear
12:15 PM 78.8 °F 48.6 °F 34% 30.13 in 10.0 mi SSE 8.1 mph - N/A   Clear
12:35 PM 79.3 °F 47.3 °F 32% 30.13 in 10.0 mi SSE 12.7 mph 17.3 mph N/A   Clear
12:55 PM 80.2 °F 46.8 °F 31% 30.12 in 10.0 mi South 8.1 mph - N/A   Clear
1:15 PM 81.3 °F 44.1 °F 27% 30.11 in 10.0 mi ESE 12.7 mph 17.3 mph N/A   Clear
1:35 PM 82.0 °F 40.8 °F 23% 30.10 in 10.0 mi SE 12.7 mph 17.3 mph N/A   Clear
1:55 PM 82.4 °F 41.9 °F 24% 30.09 in 10.0 mi SE 9.2 mph - N/A   Clear
2:15 PM 83.1 °F 40.3 °F 22% 30.09 in 10.0 mi SE 12.7 mph 16.1 mph N/A   Clear
2:35 PM 83.3 °F 40.3 °F 22% 30.08 in 10.0 mi SSE 9.2 mph - N/A   Clear
2:55 PM 83.7 °F 40.3 °F 21% 30.08 in 10.0 mi SE 10.4 mph 16.1 mph N/A   Clear
3:15 PM 84.0 °F 40.3 °F 21% 30.07 in 10.0 mi SE 9.2 mph - N/A   Clear
3:35 PM 83.3 °F 39.9 °F 21% 30.06 in 10.0 mi ESE 13.8 mph - N/A   Clear
3:55 PM 83.3 °F 40.8 °F 22% 30.06 in 10.0 mi SE 12.7 mph - N/A   Clear
4:15 PM 83.1 °F 40.6 °F 22% 30.05 in 10.0 mi SE 12.7 mph - N/A   Clear
4:35 PM 83.1 °F 40.5 °F 22% 30.05 in 10.0 mi SSE 11.5 mph - N/A   Clear
4:55 PM 82.4 °F 40.3 °F 22% 30.05 in 10.0 mi SE 10.4 mph - N/A   Clear
5:15 PM 81.5 °F 41.0 °F 24% 30.05 in 10.0 mi SSE 10.4 mph - N/A   Clear
5:35 PM 80.4 °F 40.6 °F 24% 30.05 in 10.0 mi SSE 8.1 mph - N/A   Clear
5:55 PM 78.8 °F 41.7 °F 27% 30.05 in 10.0 mi SE 8.1 mph - N/A   Clear
6:15 PM 76.6 °F 42.4 °F 29% 30.05 in 10.0 mi SE 5.8 mph - N/A   Clear
6:35 PM 73.9 °F 44.6 °F 35% 30.05 in 10.0 mi ESE 6.9 mph - N/A   Clear
6:55 PM 72.5 °F 45.0 °F 37% 30.05 in 10.0 mi ESE 6.9 mph - N/A   Clear
7:15 PM 68.9 °F 46.6 °F 45% 30.05 in 10.0 mi ESE 6.9 mph - N/A   Clear
7:35 PM 68.5 °F 46.0 °F 44% 30.05 in 10.0 mi SE 5.8 mph - N/A   Clear
7:55 PM 68.5 °F 45.5 °F 44% 30.06 in 10.0 mi ESE 4.6 mph - N/A   Clear
8:15 PM 67.8 °F 45.5 °F 45% 30.06 in 10.0 mi SE 5.8 mph - N/A   Clear
8:35 PM 66.2 °F 45.0 °F 46% 30.07 in 10.0 mi SE 5.8 mph - N/A   Clear
8:55 PM 65.5 °F 44.6 °F 47% 30.07 in 10.0 mi SE 6.9 mph - N/A   Clear
9:15 PM 64.8 °F 44.6 °F 48% 30.08 in 10.0 mi SE 6.9 mph - N/A   Clear
9:35 PM 64.9 °F 44.1 °F 47% 30.08 in 10.0 mi SE 6.9 mph - N/A   Clear
9:55 PM 63.7 °F 44.8 °F 50% 30.08 in 10.0 mi SE 6.9 mph - N/A   Clear
10:15 PM 63.3 °F 45.3 °F 52% 30.08 in 10.0 mi SE 5.8 mph - N/A   Clear
10:35 PM 61.2 °F 45.5 °F 56% 30.08 in 10.0 mi ESE 6.9 mph - N/A   Clear
10:55 PM 61.3 °F 45.5 °F 56% 30.07 in 10.0 mi ESE 6.9 mph - N/A   Clear
11:15 PM 61.2 °F 44.8 °F 55% 30.07 in 10.0 mi ESE 6.9 mph - N/A   Clear
11:35 PM 61.7 °F 43.5 °F 51% 30.07 in 10.0 mi ESE 6.9 mph - N/A   Clear
11:55 PM 61.0 °F 43.5 °F 53% 30.07 in 10.0 mi ESE 6.9 mph - N/A   Clear